Wetterdaten: Donnerstag, 06.05.2004
Datum Zeit Temp. A Sch. Temp. A Son. Feuchte A. Luftdruck Regen Wind Richtung Richtung Sonnenschein Helligkeit Taupunkt Windchill
06.05.2004 00:00 5,9 C 7,1 C 85 % 992 hPa 0,0 l/m 0,0 m/s (0 Bft) O-NO 70 0,00 min 0 lux 3,6 C 5,9 C
06.05.2004 00:05 5,7 C 7,0 C 85 % 992 hPa 0,0 l/m 0,0 m/s (0 Bft) O-NO 70 0,00 min 0 lux 3,4 C 5,7 C
06.05.2004 00:10 5,9 C 6,9 C 85 % 992 hPa 0,0 l/m 0,0 m/s (0 Bft) O-NO 70 0,00 min 0 lux 3,6 C 5,9 C
06.05.2004 00:15 5,7 C 6,8 C 85 % 992 hPa 0,0 l/m 0,0 m/s (0 Bft) O-NO 70 0,00 min 0 lux 3,4 C 5,7 C
06.05.2004 00:20 5,6 C 6,8 C 85 % 992 hPa 0,0 l/m 0,0 m/s (0 Bft) O-NO 70 0,00 min 0 lux 3,3 C 5,6 C
06.05.2004 00:25 5,4 C 6,7 C 85 % 992 hPa 0,0 l/m 0,0 m/s (0 Bft) O-NO 70 0,00 min 0 lux 3,1 C 5,4 C
06.05.2004 00:30 5,6 C 6,7 C 86 % 992 hPa 0,0 l/m 0,0 m/s (0 Bft) O-NO 70 0,00 min 0 lux 3,4 C 5,6 C
06.05.2004 00:35 5,6 C 6,5 C 86 % 992 hPa 0,0 l/m 0,0 m/s (0 Bft) O-NO 70 0,00 min 0 lux 3,4 C 5,6 C
06.05.2004 00:40 5,4 C 6,5 C 87 % 992 hPa 0,0 l/m 0,0 m/s (0 Bft) O-NO 70 0,00 min 0 lux 3,4 C 5,4 C
06.05.2004 00:45 5,4 C 6,5 C 87 % 992 hPa 0,0 l/m 0,0 m/s (0 Bft) O-NO 70 0,00 min 0 lux 3,4 C 5,4 C
06.05.2004 00:50 5,5 C 6,4 C 87 % 992 hPa 0,0 l/m 0,0 m/s (0 Bft) O-NO 70 0,00 min 0 lux 3,5 C 5,5 C
06.05.2004 00:55 4,7 C 6,3 C 88 % 993 hPa 0,0 l/m 0,0 m/s (0 Bft) O-NO 70 0,00 min 0 lux 2,9 C 4,7 C
06.05.2004 01:00 5,2 C 6,3 C 87 % 993 hPa 0,0 l/m 0,0 m/s (0 Bft) O-NO 70 0,00 min 0 lux 3,2 C 5,2 C
06.05.2004 01:05 5,4 C 6,3 C 88 % 993 hPa 0,0 l/m 0,0 m/s (0 Bft) O-NO 70 0,00 min 0 lux 3,6 C 5,4 C
06.05.2004 01:10 5,4 C 6,2 C 88 % 993 hPa 0,0 l/m 0,0 m/s (0 Bft) O-NO 70 0,00 min 0 lux 3,6 C 5,4 C
06.05.2004 01:15 5,3 C 6,2 C 88 % 993 hPa 0,0 l/m 0,0 m/s (0 Bft) O-NO 70 0,00 min 0 lux 3,5 C 5,3 C
06.05.2004 01:20 5,3 C 6,2 C 88 % 993 hPa 0,0 l/m 0,0 m/s (0 Bft) O-NO 70 0,00 min 0 lux 3,5 C 5,3 C
06.05.2004 01:25 5,1 C 6,2 C 88 % 993 hPa 0,0 l/m 0,0 m/s (0 Bft) O-NO 70 0,00 min 0 lux 3,3 C 5,1 C
06.05.2004 01:30 5,0 C 6,1 C 88 % 993 hPa 0,0 l/m 0,0 m/s (0 Bft) O-NO 70 0,00 min 0 lux 3,2 C 5,0 C
06.05.2004 01:35 5,0 C 6,1 C 88 % 993 hPa 0,0 l/m 0,0 m/s (0 Bft) O-NO 70 0,00 min 0 lux 3,2 C 5,0 C
06.05.2004 01:40 5,0 C 6,0 C 89 % 993 hPa 0,0 l/m 0,0 m/s (0 Bft) O-NO 70 0,00 min 0 lux 3,3 C 5,0 C
06.05.2004 01:45 4,9 C 6,0 C 90 % 993 hPa 0,0 l/m 0,0 m/s (0 Bft) O-NO 70 0,00 min 0 lux 3,4 C 4,9 C
06.05.2004 01:50 4,8 C 5,9 C 90 % 993 hPa 0,0 l/m 0,0 m/s (0 Bft) O-NO 70 0,00 min 0 lux 3,3 C 4,8 C
06.05.2004 01:55 4,9 C 5,8 C 90 % 993 hPa 0,0 l/m 0,0 m/s (0 Bft) O-NO 75 0,00 min 0 lux 3,4 C 4,9 C
06.05.2004 02:00 4,8 C 5,8 C 90 % 992 hPa 0,0 l/m 0,0 m/s (0 Bft) W-SW22.5 240 0,00 min 0 lux 3,3 C 4,8 C
06.05.2004 02:05 4,8 C 5,7 C 90 % 992 hPa 0,0 l/m 0,8 m/s (0 Bft) W22.5 265 0,00 min 0 lux 3,3 C 4,8 C
06.05.2004 02:10 4,6 C 5,7 C 90 % 992 hPa 0,0 l/m 0,7 m/s (0 Bft) W22.5 265 0,00 min 0 lux 3,1 C 4,6 C
06.05.2004 02:15 4,6 C 5,5 C 90 % 992 hPa 0,0 l/m 1,1 m/s (1 Bft) W22.5 270 0,00 min 0 lux 3,1 C 4,6 C
06.05.2004 02:20 4,5 C 5,5 C 90 % 992 hPa 0,0 l/m 1,5 m/s (1 Bft) W22.5 270 0,00 min 0 lux 3,0 C 4,5 C
06.05.2004 02:25 4,3 C 5,4 C 91 % 992 hPa 0,0 l/m 0,5 m/s (0 Bft) W22.5 260 0,00 min 0 lux 3,0 C 4,3 C
06.05.2004 02:30 4,1 C 5,3 C 91 % 992 hPa 0,0 l/m 0,0 m/s (0 Bft) W-NW 290 0,00 min 0 lux 2,8 C 4,1 C
06.05.2004 02:35 3,9 C 5,3 C 91 % 992 hPa 0,0 l/m 0,0 m/s (0 Bft) W-NW 290 0,00 min 0 lux 2,6 C 3,9 C
06.05.2004 02:40 3,8 C 5,2 C 91 % 992 hPa 0,0 l/m 0,0 m/s (0 Bft) W-NW 290 0,00 min 0 lux 2,5 C 3,8 C
06.05.2004 02:45 3,7 C 5,1 C 91 % 992 hPa 0,0 l/m 0,0 m/s (0 Bft) W-NW 290 0,00 min 0 lux 2,4 C 3,7 C
06.05.2004 02:50 3,6 C 4,9 C 91 % 992 hPa 0,0 l/m 0,0 m/s (0 Bft) W-NW 285 0,00 min 0 lux 2,3 C 3,6 C
06.05.2004 02:55 3,6 C 4,8 C 91 % 992 hPa 0,0 l/m 0,0 m/s (0 Bft) W-NW 285 0,00 min 0 lux 2,3 C 3,6 C
06.05.2004 03:00 3,5 C 4,7 C 92 % 992 hPa 0,0 l/m 0,0 m/s (0 Bft) W-NW 285 0,00 min 0 lux 2,3 C 3,5 C
06.05.2004 03:05 3,5 C 4,6 C 92 % 992 hPa 0,0 l/m 0,0 m/s (0 Bft) W-NW 285 0,00 min 0 lux 2,3 C 3,5 C
06.05.2004 03:10 3,5 C 4,6 C 92 % 992 hPa 0,0 l/m 0,0 m/s (0 Bft) W-NW 285 0,00 min 0 lux 2,3 C 3,5 C
06.05.2004 03:15 3,5 C 4,5 C 92 % 992 hPa 0,0 l/m 0,0 m/s (0 Bft) W-NW 285 0,00 min 0 lux 2,3 C 3,5 C
06.05.2004 03:20 3,5 C 4,4 C 92 % 992 hPa 0,0 l/m 0,0 m/s (0 Bft) W-NW 285 0,00 min 0 lux 2,3 C 3,5 C
06.05.2004 03:25 3,6 C 4,4 C 93 % 992 hPa 0,0 l/m 0,0 m/s (0 Bft) W-NW 285 0,00 min 0 lux 2,6 C 3,6 C
06.05.2004 03:30 3,6 C 4,4 C 93 % 992 hPa 0,0 l/m 0,0 m/s (0 Bft) W-NW 285 0,00 min 0 lux 2,6 C 3,6 C
06.05.2004 03:35 3,6 C 4,4 C 93 % 992 hPa 0,0 l/m 0,0 m/s (0 Bft) W-NW 285 0,00 min 0 lux 2,6 C 3,6 C
06.05.2004 03:40 3,8 C 4,4 C 93 % 992 hPa 0,0 l/m 0,0 m/s (0 Bft) W-NW 285 0,00 min 0 lux 2,8 C 3,8 C
06.05.2004 03:45 3,7 C 4,4 C 93 % 992 hPa 0,0 l/m 0,0 m/s (0 Bft) W-NW 285 0,00 min 0 lux 2,7 C 3,7 C
06.05.2004 03:50 3,8 C 4,4 C 93 % 992 hPa 0,0 l/m 0,0 m/s (0 Bft) W-NW 285 0,00 min 0 lux 2,8 C 3,8 C
06.05.2004 03:55 3,7 C 4,4 C 93 % 992 hPa 0,0 l/m 0,0 m/s (0 Bft) W-NW 285 0,00 min 0 lux 2,7 C 3,7 C
06.05.2004 04:00 3,7 C 4,4 C 93 % 992 hPa 0,0 l/m 0,0 m/s (0 Bft) W-NW 285 0,00 min 0 lux 2,7 C 3,7 C
06.05.2004 04:05 3,2 C 4,4 C 93 % 992 hPa 0,0 l/m 0,0 m/s (0 Bft) W-NW 285 0,00 min 0 lux 2,2 C 3,2 C
06.05.2004 04:10 3,6 C 4,4 C 93 % 992 hPa 0,0 l/m 0,0 m/s (0 Bft) W-NW 285 0,00 min 0 lux 2,6 C 3,6 C
06.05.2004 04:15 3,6 C 4,4 C 93 % 992 hPa 0,0 l/m 0,0 m/s (0 Bft) W-NW 285 0,00 min 0 lux 2,6 C 3,6 C
06.05.2004 04:20 3,6 C 4,4 C 93 % 992 hPa 0,0 l/m 0,0 m/s (0 Bft) W-SW22.5 250 0,00 min 0 lux 2,6 C 3,6 C
06.05.2004 04:25 3,6 C 4,4 C 93 % 992 hPa 0,0 l/m 0,0 m/s (0 Bft) W-SW 250 0,00 min 0 lux 2,6 C 3,6 C
06.05.2004 04:30 3,5 C 4,4 C 93 % 992 hPa 0,0 l/m 0,0 m/s (0 Bft) W-SW22.5 255 0,00 min 0 lux 2,5 C 3,5 C
06.05.2004 04:35 3,7 C 4,4 C 93 % 992 hPa 0,0 l/m 0,0 m/s (0 Bft) W-SW 245 0,00 min 0 lux 2,7 C 3,7 C
06.05.2004 04:40 3,7 C 4,4 C 93 % 992 hPa 0,0 l/m 0,0 m/s (0 Bft) W-SW 250 0,00 min 0 lux 2,7 C 3,7 C
06.05.2004 04:45 3,6 C 4,3 C 93 % 992 hPa 0,0 l/m 0,0 m/s (0 Bft) W-SW 250 0,00 min 0 lux 2,6 C 3,6 C
06.05.2004 04:50 3,4 C 4,4 C 93 % 992 hPa 0,0 l/m 0,0 m/s (0 Bft) W-SW 250 0,00 min 0 lux 2,4 C 3,4 C
06.05.2004 04:55 3,4 C 4,3 C 93 % 992 hPa 0,0 l/m 0,0 m/s (0 Bft) W-SW 250 0,00 min 0 lux 2,4 C 3,4 C
06.05.2004 05:00 3,5 C 4,3 C 93 % 992 hPa 0,0 l/m 0,0 m/s (0 Bft) W-SW 250 0,00 min 0 lux 2,5 C 3,5 C
06.05.2004 05:05 3,5 C 4,3 C 93 % 992 hPa 0,0 l/m 0,0 m/s (0 Bft) W-SW 250 0,00 min 0 lux 2,5 C 3,5 C
06.05.2004 05:10 3,7 C 4,3 C 94 % 992 hPa 0,0 l/m 0,0 m/s (0 Bft) W-SW 250 0,00 min 0 lux 2,8 C 3,7 C
06.05.2004 05:15 3,8 C 4,4 C 94 % 992 hPa 0,0 l/m 0,0 m/s (0 Bft) W-SW 250 0,00 min 0 lux 2,9 C 3,8 C
06.05.2004 05:20 3,7 C 4,5 C 93 % 992 hPa 0,0 l/m 0,0 m/s (0 Bft) W-SW 250 0,00 min 0 lux 2,7 C 3,7 C
06.05.2004 05:25 3,7 C 4,5 C 93 % 992 hPa 0,0 l/m 0,0 m/s (0 Bft) W-SW 250 0,00 min 0 lux 2,7 C 3,7 C
06.05.2004 05:30 3,5 C 4,5 C 93 % 992 hPa 0,0 l/m 0,0 m/s (0 Bft) W-SW 250 0,00 min 0 lux 2,5 C 3,5 C
06.05.2004 05:35 3,7 C 4,6 C 93 % 992 hPa 0,0 l/m 0,0 m/s (0 Bft) W-SW 250 0,00 min 0 lux 2,7 C 3,7 C
06.05.2004 05:40 3,8 C 4,6 C 93 % 993 hPa 0,0 l/m 0,0 m/s (0 Bft) W-SW 250 0,00 min 61 lux 2,8 C 3,8 C
06.05.2004 05:45 3,9 C 4,6 C 93 % 993 hPa 0,0 l/m 0,0 m/s (0 Bft) W-SW 250 0,00 min 92 lux 2,9 C 3,9 C
06.05.2004 05:50 4,0 C 4,6 C 93 % 993 hPa 0,0 l/m 0,0 m/s (0 Bft) W-NW 290 0,00 min 129 lux 3,0 C 4,0 C
06.05.2004 05:55 4,1 C 4,7 C 93 % 993 hPa 0,0 l/m 0,0 m/s (0 Bft) W-SW22.5 255 0,00 min 154 lux 3,1 C 4,1 C
06.05.2004 06:00 4,3 C 4,7 C 93 % 993 hPa 0,0 l/m 0,0 m/s (0 Bft) W-SW 240 0,00 min 246 lux 3,3 C 4,3 C
06.05.2004 06:05 4,3 C 4,9 C 92 % 993 hPa 0,0 l/m 0,0 m/s (0 Bft) W-SW 240 0,00 min 334 lux 3,1 C 4,3 C
06.05.2004 06:10 4,4 C 4,9 C 92 % 993 hPa 0,0 l/m 0,0 m/s (0 Bft) W-SW 240 0,00 min 396 lux 3,2 C 4,4 C
06.05.2004 06:15 4,5 C 5,0 C 92 % 993 hPa 0,0 l/m 0,0 m/s (0 Bft) W-SW 240 0,00 min 691 lux 3,3 C 4,5 C
06.05.2004 06:20 4,5 C 5,0 C 92 % 993 hPa 0,0 l/m 0,0 m/s (0 Bft) W-SW 240 0,00 min 906 lux 3,3 C 4,5 C
06.05.2004 06:25 4,5 C 5,1 C 92 % 993 hPa 0,0 l/m 0,0 m/s (0 Bft) W-SW 240 0,00 min 1,21 klux 3,3 C 4,5 C
06.05.2004 06:30 4,6 C 5,1 C 92 % 993 hPa 0,0 l/m 0,0 m/s (0 Bft) W-SW 240 0,00 min 1,62 klux 3,4 C 4,6 C
06.05.2004 06:35 4,5 C 5,1 C 91 % 993 hPa 0,0 l/m 0,0 m/s (0 Bft) W-SW 240 0,00 min 1,97 klux 3,2 C 4,5 C
06.05.2004 06:40 4,5 C 5,2 C 91 % 993 hPa 0,0 l/m 0,0 m/s (0 Bft) W-SW 240 0,00 min 2,34 klux 3,2 C 4,5 C
06.05.2004 06:45 4,6 C 5,2 C 91 % 993 hPa 0,0 l/m 0,0 m/s (0 Bft) W-SW 240 0,00 min 3,03 klux 3,3 C 4,6 C
06.05.2004 06:50 5,0 C 5,3 C 90 % 993 hPa 0,0 l/m 0,0 m/s (0 Bft) W-SW 240 0,00 min 3,44 klux 3,5 C 5,0 C
06.05.2004 06:55 4,9 C 5,3 C 91 % 993 hPa 0,0 l/m 0,0 m/s (0 Bft) W-SW 240 0,00 min 3,61 klux 3,6 C 4,9 C
06.05.2004 07:00 5,0 C 5,4 C 90 % 993 hPa 0,0 l/m 0,0 m/s (0 Bft) W-SW 240 0,00 min 3,97 klux 3,5 C 5,0 C
06.05.2004 07:05 5,0 C 5,4 C 89 % 993 hPa 0,0 l/m 0,0 m/s (0 Bft) W-SW 240 0,00 min 4,41 klux 3,3 C 5,0 C
06.05.2004 07:10 5,0 C 5,5 C 89 % 993 hPa 0,0 l/m 0,0 m/s (0 Bft) W-SW 240 0,00 min 5,14 klux 3,3 C 5,0 C
06.05.2004 07:15 4,8 C 5,6 C 89 % 993 hPa 0,0 l/m 0,0 m/s (0 Bft) W-SW 240 0,00 min 6,22 klux 3,1 C 4,8 C
06.05.2004 07:20 5,3 C 5,6 C 89 % 993 hPa 0,0 l/m 0,0 m/s (0 Bft) W-SW 240 0,00 min 6,72 klux 3,6 C 5,3 C
06.05.2004 07:25 5,3 C 5,6 C 88 % 993 hPa 0,0 l/m 0,0 m/s (0 Bft) W-SW 240 0,00 min 6,76 klux 3,5 C 5,3 C
06.05.2004 07:30 5,4 C 5,6 C 88 % 993 hPa 0,0 l/m 0,0 m/s (0 Bft) W-SW 240 0,00 min 6,85 klux 3,6 C 5,4 C
06.05.2004 07:35 5,6 C 5,7 C 87 % 993 hPa 0,0 l/m 0,0 m/s (0 Bft) W-SW 240 0,00 min 7,21 klux 3,6 C 5,6 C
06.05.2004 07:40 5,7 C 5,8 C 87 % 993 hPa 0,0 l/m 0,0 m/s (0 Bft) W-SW 240 0,00 min 7,51 klux 3,7 C 5,7 C
06.05.2004 07:45 5,8 C 5,9 C 87 % 993 hPa 0,0 l/m 0,0 m/s (0 Bft) W-SW 240 0,00 min 8,22 klux 3,8 C 5,8 C
06.05.2004 07:50 5,9 C 6,0 C 87 % 993 hPa 0,0 l/m 0,0 m/s (0 Bft) W-SW 240 0,00 min 8,33 klux 3,9 C 5,9 C
06.05.2004 07:55 6,0 C 6,2 C 85 % 993 hPa 0,0 l/m 0,0 m/s (0 Bft) W-SW 240 0,00 min 8,03 klux 3,7 C 6,0 C
06.05.2004 08:00 6,2 C 6,3 C 85 % 993 hPa 0,0 l/m 0,0 m/s (0 Bft) W-SW 240 0,00 min 9,3 klux 3,9 C 6,2 C
06.05.2004 08:05 5,8 C 6,4 C 86 % 993 hPa 0,0 l/m 0,0 m/s (0 Bft) W-SW 240 0,00 min 10,4 klux 3,6 C 5,8 C
06.05.2004 08:10 6,2 C 6,5 C 85 % 993 hPa 0,0 l/m 0,0 m/s (0 Bft) W-SW 240 0,00 min 11,6 klux 3,9 C 6,2 C
06.05.2004 08:15 6,2 C 6,5 C 85 % 993 hPa 0,0 l/m 0,0 m/s (0 Bft) W-SW 240 0,00 min 12,1 klux 3,9 C 6,2 C
06.05.2004 08:20 6,4 C 6,7 C 84 % 993 hPa 0,0 l/m 1,6 m/s (1 Bft) W-SW22.5 250 0,00 min 13,4 klux 3,9 C 6,4 C
06.05.2004 08:25 6,5 C 6,8 C 84 % 993 hPa 0,0 l/m 1,5 m/s (1 Bft) W-SW22.5 255 0,00 min 13,7 klux 4,0 C 6,5 C
06.05.2004 08:30 6,7 C 6,8 C 84 % 993 hPa 0,0 l/m 0,8 m/s (0 Bft) W-SW22.5 240 0,00 min 13,6 klux 4,2 C 6,7 C
06.05.2004 08:35 6,5 C 6,8 C 83 % 993 hPa 0,0 l/m 1,1 m/s (1 Bft) W-SW22.5 240 0,00 min 13,8 klux 3,8 C 6,5 C
06.05.2004 08:40 6,6 C 7,0 C 83 % 993 hPa 0,0 l/m 1,5 m/s (1 Bft) W-SW22.5 255 0,00 min 14,9 klux 3,9 C 6,6 C
06.05.2004 08:45 6,9 C 7,1 C 83 % 993 hPa 0,0 l/m 1,4 m/s (1 Bft) W-SW22.5 250 0,00 min 16,3 klux 4,2 C 6,9 C
06.05.2004 08:50 7,1 C 7,2 C 82 % 993 hPa 0,0 l/m 1,0 m/s (0 Bft) W-SW 250 0,00 min 16,6 klux 4,2 C 7,1 C
06.05.2004 08:55 7,1 C 7,3 C 81 % 993 hPa 0,0 l/m 0,8 m/s (0 Bft) W-SW22.5 240 0,00 min 17,8 klux 4,1 C 7,1 C
06.05.2004 09:00 7,3 C 7,5 C 80 % 993 hPa 0,0 l/m 1,0 m/s (0 Bft) W-SW22.5 240 0,00 min 18,0 klux 4,1 C 7,3 C
06.05.2004 09:05 7,3 C 7,7 C 80 % 993 hPa 0,0 l/m 1,6 m/s (1 Bft) W-SW22.5 250 0,00 min 19,3 klux 4,1 C 7,3 C
06.05.2004 09:10 7,8 C 7,8 C 79 % 993 hPa 0,0 l/m 1,5 m/s (1 Bft) W-SW22.5 250 0,00 min 19,7 klux 4,4 C 7,8 C
06.05.2004 09:15 8,0 C 8,0 C 77 % 993 hPa 0,0 l/m 0,3 m/s (0 Bft) W-SW22.5 245 0,00 min 20,9 klux 4,2 C 8,0 C
06.05.2004 09:20 8,2 C 8,1 C 77 % 993 hPa 0,0 l/m 1,5 m/s (1 Bft) SW 225 0,00 min 22,0 klux 4,4 C 8,2 C
06.05.2004 09:25 8,1 C 8,3 C 76 % 993 hPa 0,0 l/m 2,4 m/s (1 Bft) W-SW45 240 0,00 min 22,5 klux 4,1 C 6,5 C
06.05.2004 09:30 8,2 C 8,6 C 75 % 993 hPa 0,0 l/m 2,8 m/s (1 Bft) W-SW22.5 240 0,00 min 25,1 klux 4,0 C 5,6 C
06.05.2004 09:35 8,6 C 8,8 C 75 % 993 hPa 0,0 l/m 2,6 m/s (1 Bft) W-SW22.5 240 0,00 min 26,0 klux 4,4 C 6,4 C
06.05.2004 09:40 8,8 C 9,0 C 74 % 993 hPa 0,0 l/m 2,3 m/s (1 Bft) W-SW22.5 245 0,00 min 25,5 klux 4,4 C 7,4 C
06.05.2004 09:45 9,1 C 9,3 C 73 % 993 hPa 0,0 l/m 2,0 m/s (1 Bft) W-SW45 240 0,00 min 28,2 klux 4,5 C 8,4 C
06.05.2004 09:50 9,6 C 9,5 C 72 % 993 hPa 0,0 l/m 2,5 m/s (1 Bft) W-SW22.5 245 0,00 min 31,4 klux 4,8 C 7,7 C
06.05.2004 09:55 10,0 C 9,6 C 70 % 993 hPa 0,0 l/m 1,8 m/s (1 Bft) SW45 235 0,00 min 32,8 klux 4,8 C 10,0 C
06.05.2004 10:00 10,2 C 9,9 C 67 % 993 hPa 0,0 l/m 1,9 m/s (1 Bft) SW22.5 235 0,00 min 33,7 klux 4,4 C 9,8 C
06.05.2004 10:05 10,6 C 10,2 C 67 % 993 hPa 0,0 l/m 1,9 m/s (1 Bft) W-SW45 240 0,00 min 35,4 klux 4,7 C 10,2 C
06.05.2004 10:10 10,7 C 10,5 C 66 % 993 hPa 0,0 l/m 2,1 m/s (1 Bft) W-SW22.5 240 0,00 min 36,6 klux 4,6 C 9,9 C
06.05.2004 10:15 11,2 C 10,6 C 64 % 993 hPa 0,0 l/m 2,5 m/s (1 Bft) SW22.5 225 0,00 min 38,2 klux 4,6 C 9,5 C
06.05.2004 10:20 11,4 C 11,0 C 62 % 993 hPa 0,0 l/m 2,6 m/s (1 Bft) W-SW45 245 0,00 min 45,6 klux 4,4 C 9,5 C
06.05.2004 10:25 11,5 C 11,4 C 62 % 993 hPa 0,0 l/m 2,8 m/s (1 Bft) SW45 230 0,00 min 47,8 klux 4,5 C 9,2 C
06.05.2004 10:30 11,8 C 11,5 C 61 % 993 hPa 0,0 l/m 3,3 m/s (1 Bft) SW22.5 230 0,00 min 46,1 klux 4,5 C 8,7 C
06.05.2004 10:35 12,1 C 11,8 C 58 % 993 hPa 0,0 l/m 2,6 m/s (1 Bft) W-SW22.5 250 0,00 min 42,7 klux 4,1 C 10,2 C
06.05.2004 10:40 13,0 C 12,2 C 55 % 993 hPa 0,0 l/m 4,1 m/s (1 Bft) W-NW45 300 0,00 min 49,3 klux 4,2 C 8,8 C
06.05.2004 10:45 13,0 C 12,4 C 51 % 993 hPa 0,0 l/m 3,5 m/s (1 Bft) W-NW45 290 0,00 min 49,8 klux 3,1 C 9,7 C
06.05.2004 10:50 12,8 C 12,7 C 51 % 993 hPa 0,0 l/m 5,1 m/s (1 Bft) W45 275 0,00 min 44,6 klux 2,9 C 7,4 C
06.05.2004 10:55 13,0 C 13,0 C 49 % 993 hPa 0,0 l/m 4,4 m/s (1 Bft) W67.5 270 0,00 min 41,7 klux 2,5 C 8,5 C
06.05.2004 11:00 12,9 C 13,1 C 51 % 993 hPa 0,0 l/m 3,5 m/s (1 Bft) W45 265 0,00 min 41,1 klux 3,0 C 9,6 C
06.05.2004 11:05 13,3 C 13,2 C 50 % 993 hPa 0,0 l/m 3,3 m/s (1 Bft) W-SW22.5 255 0,00 min 40,6 klux 3,1 C 10,4 C
06.05.2004 11:10 13,6 C 13,5 C 49 % 993 hPa 0,0 l/m 2,8 m/s (1 Bft) W22.5 270 0,00 min 41,1 klux 3,1 C 11,5 C
06.05.2004 11:15 13,6 C 13,8 C 49 % 993 hPa 0,0 l/m 0,2 m/s (0 Bft) W-SW45 240 0,00 min 42,3 klux 3,1 C 13,6 C
06.05.2004 11:20 14,4 C 13,9 C 49 % 993 hPa 0,0 l/m 3,8 m/s (1 Bft) W-NW45 295 0,00 min 39,1 klux 3,8 C 11,0 C
06.05.2004 11:25 13,7 C 14,0 C 48 % 993 hPa 0,0 l/m 4,3 m/s (1 Bft) W22.5 260 0,00 min 37,1 klux 2,9 C 9,4 C
06.05.2004 11:30 13,8 C 14,0 C 47 % 993 hPa 0,0 l/m 3,2 m/s (1 Bft) W22.5 275 0,00 min 38,9 klux 2,7 C 11,1 C
06.05.2004 11:35 13,6 C 14,2 C 47 % 993 hPa 0,0 l/m 3,1 m/s (1 Bft) W45 270 0,00 min 38,6 klux 2,5 C 11,1 C
06.05.2004 11:40 14,2 C 14,2 C 48 % 993 hPa 0,0 l/m 0,1 m/s (0 Bft) W-SW22.5 245 0,00 min 35,2 klux 3,4 C 14,2 C
06.05.2004 11:45 14,1 C 14,3 C 47 % 993 hPa 0,0 l/m 0,6 m/s (0 Bft) W-NW22.5 285 0,00 min 34,4 klux 3,0 C 14,1 C
06.05.2004 11:50 14,5 C 14,4 C 46 % 993 hPa 0,0 l/m 1,3 m/s (1 Bft) N-NW45 335 0,00 min 41,9 klux 3,0 C 14,5 C
06.05.2004 11:55 14,6 C 14,4 C 45 % 993 hPa 0,0 l/m 0,5 m/s (0 Bft) N67.5 10 0,00 min 49,2 klux 2,8 C 14,6 C
06.05.2004 12:00 14,8 C 14,6 C 45 % 993 hPa 0,0 l/m 2,0 m/s (1 Bft) N67.5 10 0,00 min 50,6 klux 3,0 C 14,3 C
06.05.2004 12:05 14,9 C 15,0 C 44 % 993 hPa 0,0 l/m 0,5 m/s (0 Bft) NO45 50 0,00 min 50,1 klux 2,8 C 14,9 C
06.05.2004 12:10 15,0 C 15,1 C 42 % 993 hPa 0,0 l/m 2,1 m/s (1 Bft) NO67.5 45 0,00 min 52,8 klux 2,2 C 14,4 C
06.05.2004 12:15 15,1 C 15,3 C 42 % 993 hPa 0,0 l/m 2,5 m/s (1 Bft) O-NO45 70 0,00 min 51,0 klux 2,3 C 13,7 C
06.05.2004 12:20 14,8 C 15,3 C 43 % 993 hPa 0,0 l/m 1,9 m/s (1 Bft) N-NW 340 0,00 min 43,2 klux 2,3 C 14,5 C
06.05.2004 12:25 13,8 C 15,0 C 43 % 993 hPa 0,0 l/m 3,8 m/s (1 Bft) NW67.5 315 0,00 min 17,9 klux 1,4 C 10,2 C
06.05.2004 12:30 13,4 C 14,8 C 46 % 993 hPa 0,0 l/m 2,2 m/s (1 Bft) N-NO67.5 25 0,00 min 12,0 klux 2,0 C 12,5 C
06.05.2004 12:35 13,2 C 14,4 C 45 % 993 hPa 0,0 l/m 1,3 m/s (1 Bft) NW67.5 320 0,00 min 10,5 klux 1,5 C 13,2 C
06.05.2004 12:40 12,9 C 14,2 C 47 % 993 hPa 0,0 l/m 2,3 m/s (1 Bft) W-NW45 290 0,00 min 10,2 klux 1,9 C 11,8 C
06.05.2004 12:45 12,6 C 13,9 C 46 % 993 hPa 0,0 l/m 1,5 m/s (1 Bft) W-NW45 290 0,00 min 8,91 klux 1,3 C 12,6 C
06.05.2004 12:50 12,5 C 13,6 C 48 % 993 hPa 0,0 l/m 5,6 m/s (1 Bft) W-NW45 295 0,00 min 8,11 klux 1,8 C 6,5 C
06.05.2004 12:55 12,5 C 13,4 C 50 % 993 hPa 0,0 l/m 5,6 m/s (1 Bft) W-NW45 295 0,00 min 8,25 klux 2,4 C 6,4 C
06.05.2004 13:00 12,3 C 13,3 C 53 % 993 hPa 0,0 l/m 1,8 m/s (1 Bft) W22.5 260 0,00 min 8,45 klux 3,0 C 12,3 C
06.05.2004 13:05 12,2 C 13,1 C 55 % 993 hPa 0,0 l/m 1,8 m/s (1 Bft) NW67.5 305 0,00 min 9,4 klux 3,4 C 12,2 C
06.05.2004 13:10 12,1 C 13,0 C 56 % 993 hPa 0,0 l/m 1,3 m/s (1 Bft) W 265 0,00 min 10,7 klux 3,6 C 12,1 C
06.05.2004 13:15 12,0 C 12,9 C 59 % 993 hPa 0,0 l/m 1,3 m/s (1 Bft) W22.5 260 0,00 min 12,1 klux 4,2 C 12,0 C
06.05.2004 13:20 12,1 C 12,9 C 63 % 993 hPa 0,0 l/m 1,4 m/s (1 Bft) W-NW22.5 285 0,00 min 15,2 klux 5,3 C 12,1 C
06.05.2004 13:25 12,1 C 12,9 C 64 % 994 hPa 0,0 l/m 0,2 m/s (0 Bft) W22.5 270 0,00 min 20,7 klux 5,5 C 12,1 C
06.05.2004 13:30 12,3 C 12,7 C 60 % 994 hPa 0,0 l/m 2,9 m/s (1 Bft) W-NW45 285 0,00 min 23,0 klux 4,8 C 9,8 C
06.05.2004 13:35 11,9 C 12,7 C 59 % 994 hPa 0,0 l/m 2,3 m/s (1 Bft) NW45 320 0,00 min 17,8 klux 4,1 C 10,6 C
06.05.2004 13:40 11,7 C 12,6 C 60 % 994 hPa 0,0 l/m 2,6 m/s (1 Bft) NW45 305 0,00 min 14,8 klux 4,2 C 9,7 C
06.05.2004 13:45 11,5 C 12,5 C 60 % 994 hPa 0,0 l/m 4,9 m/s (1 Bft) NW67.5 320 0,00 min 15,0 klux 4,0 C 6,0 C
06.05.2004 13:50 11,5 C 12,3 C 62 % 994 hPa 0,0 l/m 3,3 m/s (1 Bft) NW45 305 0,00 min 20,3 klux 4,5 C 8,2 C
06.05.2004 13:55 11,7 C 12,3 C 62 % 994 hPa 0,0 l/m 0,2 m/s (0 Bft) NW67.5 305 0,00 min 23,8 klux 4,7 C 11,7 C
06.05.2004 14:00 11,7 C 12,5 C 63 % 994 hPa 0,0 l/m 2,4 m/s (1 Bft) NO67.5 50 0,00 min 39,1 klux 4,9 C 10,3 C
06.05.2004 14:05 11,8 C 12,8 C 65 % 994 hPa 0,0 l/m 3,4 m/s (1 Bft) O67.5 85 0,00 min 42,9 klux 5,4 C 8,5 C
06.05.2004 14:10 12,6 C 12,9 C 65 % 994 hPa 0,0 l/m 2,4 m/s (1 Bft) O-NO67.5 75 0,00 min 47,6 klux 6,2 C 11,2 C
06.05.2004 14:15 12,5 C 13,3 C 67 % 994 hPa 0,0 l/m 3,1 m/s (1 Bft) O-SO45 110 0,00 min 47,2 klux 6,5 C 9,9 C
06.05.2004 14:20 12,1 C 13,4 C 69 % 994 hPa 0,0 l/m 3,4 m/s (1 Bft) O-SO22.5 115 0,00 min 39,6 klux 6,6 C 8,9 C
06.05.2004 14:25 12,3 C 13,5 C 66 % 994 hPa 0,0 l/m 3,0 m/s (1 Bft) O45 95 0,00 min 25,9 klux 6,1 C 9,7 C
06.05.2004 14:30 12,3 C 13,3 C 67 % 994 hPa 0,0 l/m 0,5 m/s (0 Bft) NO45 45 0,00 min 35,6 klux 6,4 C 12,3 C
06.05.2004 14:35 12,7 C 13,3 C 67 % 994 hPa 0,0 l/m 0,3 m/s (0 Bft) NO67.5 35 0,00 min 39,0 klux 6,7 C 12,7 C
06.05.2004 14:40 12,4 C 13,3 C 62 % 994 hPa 0,0 l/m 3,5 m/s (1 Bft) N22.5 355 0,00 min 37,8 klux 5,3 C 9,0 C
06.05.2004 14:45 12,3 C 13,4 C 64 % 994 hPa 0,0 l/m 1,4 m/s (1 Bft) N-NO67.5 20 0,00 min 35,0 klux 5,7 C 12,3 C
06.05.2004 14:50 12,3 C 13,4 C 64 % 994 hPa 0,0 l/m 0,1 m/s (0 Bft) NW67.5 320 0,00 min 37,0 klux 5,7 C 12,3 C
06.05.2004 14:55 12,2 C 13,5 C 64 % 994 hPa 0,0 l/m 2,2 m/s (1 Bft) N-NO22.5 30 0,00 min 34,2 klux 5,6 C 11,3 C
06.05.2004 15:00 12,2 C 13,6 C 65 % 994 hPa 0,0 l/m 0,1 m/s (0 Bft) NO67.5 50 0,00 min 31,7 klux 5,8 C 12,2 C
06.05.2004 15:05 12,1 C 13,5 C 66 % 994 hPa 0,0 l/m 1,8 m/s (1 Bft) N-NW67.5 330 0,00 min 31,5 klux 5,9 C 12,1 C
06.05.2004 15:10 11,9 C 13,4 C 67 % 994 hPa 0,0 l/m 2,3 m/s (1 Bft) N-NW67.5 345 0,00 min 26,4 klux 6,0 C 10,7 C
06.05.2004 15:15 11,8 C 13,2 C 64 % 995 hPa 0,0 l/m 2,8 m/s (1 Bft) W-NW67.5 300 0,00 min 28,5 klux 5,2 C 9,5 C
06.05.2004 15:20 12,0 C 13,1 C 64 % 995 hPa 0,0 l/m 2,2 m/s (1 Bft) N22.5 5 0,00 min 27,5 klux 5,4 C 11,0 C
06.05.2004 15:25 12,1 C 13,0 C 65 % 995 hPa 0,0 l/m 2,8 m/s (1 Bft) W-SW45 250 0,00 min 23,4 klux 5,7 C 9,9 C
06.05.2004 15:30 11,7 C 12,7 C 64 % 995 hPa 0,0 l/m 2,9 m/s (1 Bft) NW45 310 0,00 min 21,6 klux 5,1 C 9,3 C
06.05.2004 15:35 11,7 C 12,6 C 65 % 995 hPa 0,0 l/m 4,2 m/s (1 Bft) NW67.5 310 0,00 min 20,9 klux 5,3 C 7,2 C
06.05.2004 15:40 11,7 C 12,4 C 65 % 995 hPa 0,0 l/m 2,7 m/s (1 Bft) W-NW45 295 0,00 min 22,6 klux 5,3 C 9,6 C
06.05.2004 15:45 11,6 C 12,3 C 65 % 994 hPa 0,0 l/m 4,9 m/s (1 Bft) W-NW22.5 290 0,00 min 22,5 klux 5,2 C 6,1 C
06.05.2004 15:50 11,4 C 12,2 C 67 % 994 hPa 0,0 l/m 2,8 m/s (1 Bft) W22.5 275 0,00 min 25,0 klux 5,5 C 9,1 C
06.05.2004 15:55 11,6 C 12,3 C 68 % 994 hPa 0,0 l/m 3,0 m/s (1 Bft) W-NW67.5 300 0,00 min 27,0 klux 5,9 C 8,9 C
06.05.2004 16:00 11,4 C 12,2 C 69 % 994 hPa 0,0 l/m 4,2 m/s (1 Bft) W-NW45 295 0,00 min 21,8 klux 5,9 C 6,8 C
06.05.2004 16:05 11,0 C 12,1 C 70 % 994 hPa 0,0 l/m 3,3 m/s (1 Bft) W45 275 0,00 min 11,5 klux 5,7 C 7,7 C
06.05.2004 16:10 10,8 C 12,0 C 72 % 994 hPa 0,4 l/m 1,1 m/s (1 Bft) NW45 310 0,00 min 9,1 klux 6,0 C 10,8 C
06.05.2004 16:15 10,5 C 11,9 C 74 % 995 hPa 0,0 l/m 1,7 m/s (1 Bft) NW45 305 0,00 min 9,6 klux 6,1 C 10,5 C
06.05.2004 16:20 10,1 C 11,7 C 75 % 994 hPa 0,0 l/m 4,0 m/s (1 Bft) W-NW45 300 0,00 min 10,2 klux 5,9 C 5,6 C
06.05.2004 16:25 10,2 C 11,6 C 76 % 995 hPa 0,4 l/m 2,6 m/s (1 Bft) W-NW45 295 0,00 min 15,1 klux 6,2 C 8,1 C
06.05.2004 16:30 9,8 C 11,6 C 77 % 994 hPa 0,0 l/m 3,0 m/s (1 Bft) W45 270 0,00 min 18,2 klux 6,0 C 6,9 C
06.05.2004 16:35 9,7 C 11,5 C 78 % 995 hPa 0,0 l/m 2,4 m/s (1 Bft) W22.5 265 0,00 min 15,6 klux 6,1 C 8,1 C
06.05.2004 16:40 10,0 C 11,5 C 77 % 995 hPa 0,0 l/m 2,9 m/s (1 Bft) W22.5 275 0,00 min 16,2 klux 6,2 C 7,3 C
06.05.2004 16:45 9,9 C 11,4 C 79 % 995 hPa 0,0 l/m 2,1 m/s (1 Bft) W-NW45 285 0,00 min 16,5 klux 6,4 C 9,1 C
06.05.2004 16:50 10,1 C 11,4 C 77 % 995 hPa 0,0 l/m 2,4 m/s (1 Bft) W-NW45 290 0,00 min 18,4 klux 6,3 C 8,4 C
06.05.2004 16:55 10,4 C 11,3 C 76 % 995 hPa 0,0 l/m 4,7 m/s (1 Bft) W45 280 0,00 min 21,1 klux 6,4 C 4,8 C
06.05.2004 17:00 10,4 C 11,3 C 76 % 995 hPa 0,0 l/m 2,4 m/s (1 Bft) W-NW45 285 0,00 min 23,6 klux 6,4 C 8,8 C
06.05.2004 17:05 10,2 C 11,3 C 74 % 995 hPa 0,0 l/m 3,8 m/s (1 Bft) W45 280 0,00 min 21,1 klux 5,8 C 5,9 C
06.05.2004 17:10 10,0 C 11,3 C 73 % 995 hPa 0,0 l/m 3,4 m/s (1 Bft) W-NW45 295 0,00 min 18,7 klux 5,4 C 6,5 C
06.05.2004 17:15 10,3 C 11,2 C 73 % 995 hPa 0,0 l/m 2,5 m/s (1 Bft) W45 275 0,00 min 17,0 klux 5,7 C 8,6 C
06.05.2004 17:20 10,2 C 11,2 C 74 % 995 hPa 0,0 l/m 1,2 m/s (1 Bft) W45 275 0,00 min 17,5 klux 5,8 C 10,2 C
06.05.2004 17:25 10,2 C 11,2 C 75 % 995 hPa 0,4 l/m 3,6 m/s (1 Bft) W45 270 0,00 min 18,0 klux 6,0 C 6,3 C
06.05.2004 17:30 10,3 C 11,2 C 75 % 995 hPa 0,0 l/m 2,9 m/s (1 Bft) W45 260 0,00 min 15,7 klux 6,1 C 7,6 C
06.05.2004 17:35 9,6 C 11,1 C 77 % 995 hPa 0,0 l/m 3,9 m/s (1 Bft) W45 260 0,00 min 13,4 klux 5,8 C 5,1 C
06.05.2004 17:40 9,8 C 11,0 C 78 % 995 hPa 0,0 l/m 2,0 m/s (1 Bft) W45 265 0,00 min 12,6 klux 6,1 C 9,2 C
06.05.2004 17:45 9,8 C 10,9 C 77 % 995 hPa 0,0 l/m 3,4 m/s (1 Bft) W67.5 270 0,00 min 11,1 klux 6,0 C 6,1 C
06.05.2004 17:50 9,7 C 10,9 C 78 % 995 hPa 0,0 l/m 1,7 m/s (1 Bft) W45 275 0,00 min 9,4 klux 6,1 C 9,7 C
06.05.2004 17:55 9,5 C 10,8 C 78 % 995 hPa 0,0 l/m 2,3 m/s (1 Bft) W-SW45 250 0,00 min 9,4 klux 5,9 C 8,2 C
06.05.2004 18:00 9,5 C 10,7 C 78 % 995 hPa 0,0 l/m 2,9 m/s (1 Bft) W-SW22.5 255 0,00 min 9,4 klux 5,9 C 6,8 C
06.05.2004 18:05 9,2 C 10,6 C 78 % 995 hPa 0,0 l/m 1,7 m/s (1 Bft) W-SW22.5 240 0,00 min 9,3 klux 5,6 C 9,2 C
06.05.2004 18:10 9,4 C 10,5 C 78 % 995 hPa 0,0 l/m 1,8 m/s (1 Bft) W-SW22.5 250 0,00 min 9,3 klux 5,8 C 9,4 C
06.05.2004 18:15 9,3 C 10,4 C 78 % 995 hPa 0,0 l/m 2,8 m/s (1 Bft) W-SW22.5 245 0,00 min 9,0 klux 5,7 C 6,7 C
06.05.2004 18:20 9,3 C 10,3 C 79 % 995 hPa 0,0 l/m 2,9 m/s (1 Bft) W22.5 260 0,00 min 8,85 klux 5,8 C 6,5 C
06.05.2004 18:25 9,1 C 10,3 C 79 % 995 hPa 0,4 l/m 2,1 m/s (1 Bft) W-SW22.5 250 0,00 min 8,37 klux 5,7 C 8,3 C
06.05.2004 18:30 9,1 C 10,2 C 79 % 995 hPa 0,0 l/m 1,6 m/s (1 Bft) W-SW22.5 240 0,00 min 8,36 klux 5,7 C 9,1 C
06.05.2004 18:35 9,2 C 10,2 C 80 % 995 hPa 0,0 l/m 2,2 m/s (1 Bft) W-SW22.5 250 0,00 min 7,35 klux 5,9 C 8,2 C
06.05.2004 18:40 9,1 C 10,2 C 80 % 995 hPa 0,0 l/m 0,1 m/s (0 Bft) W-SW 250 0,00 min 6,50 klux 5,8 C 9,1 C
06.05.2004 18:45 9,2 C 10,1 C 82 % 995 hPa 0,0 l/m 1,8 m/s (1 Bft) W-SW 240 0,00 min 6,23 klux 6,3 C 9,2 C
06.05.2004 18:50 9,1 C 10,0 C 82 % 995 hPa 0,0 l/m 1,8 m/s (1 Bft) W-SW22.5 250 0,00 min 5,54 klux 6,2 C 9,1 C
06.05.2004 18:55 8,9 C 10,0 C 83 % 995 hPa 0,0 l/m 1,9 m/s (1 Bft) W-SW22.5 245 0,00 min 3,99 klux 6,2 C 8,7 C
06.05.2004 19:00 8,5 C 10,0 C 83 % 995 hPa 0,0 l/m 1,5 m/s (1 Bft) W-SW22.5 245 0,00 min 3,82 klux 5,8 C 8,5 C
06.05.2004 19:05 9,0 C 9,9 C 83 % 995 hPa 0,0 l/m 1,6 m/s (1 Bft) W-SW22.5 250 0,00 min 3,67 klux 6,3 C 9,0 C
06.05.2004 19:10 8,8 C 9,8 C 84 % 995 hPa 0,4 l/m 1,2 m/s (1 Bft) W-SW22.5 245 0,00 min 4,34 klux 6,2 C 8,8 C
06.05.2004 19:15 8,7 C 9,8 C 84 % 996 hPa 0,0 l/m 2,0 m/s (1 Bft) W-SW22.5 255 0,00 min 4,36 klux 6,2 C 8,0 C
06.05.2004 19:20 8,6 C 9,8 C 84 % 996 hPa 0,0 l/m 2,2 m/s (1 Bft) W-SW22.5 250 0,00 min 4,42 klux 6,1 C 7,5 C
06.05.2004 19:25 8,7 C 9,7 C 85 % 996 hPa 0,0 l/m 1,6 m/s (1 Bft) W-SW22.5 250 0,00 min 4,98 klux 6,3 C 8,7 C
06.05.2004 19:30 8,7 C 9,6 C 85 % 996 hPa 0,4 l/m 1,6 m/s (1 Bft) W-SW22.5 250 0,00 min 4,75 klux 6,3 C 8,7 C
06.05.2004 19:35 8,7 C 9,6 C 86 % 996 hPa 0,0 l/m 2,1 m/s (1 Bft) W-SW22.5 250 0,00 min 4,25 klux 6,5 C 7,7 C
06.05.2004 19:40 8,6 C 9,6 C 87 % 996 hPa 0,0 l/m 1,5 m/s (1 Bft) W-SW22.5 245 0,00 min 3,87 klux 6,6 C 8,6 C
06.05.2004 19:45 8,6 C 9,5 C 87 % 996 hPa 0,0 l/m 1,6 m/s (1 Bft) W-SW 250 0,00 min 3,24 klux 6,6 C 8,6 C
06.05.2004 19:50 8,6 C 9,5 C 88 % 996 hPa 0,0 l/m 1,9 m/s (1 Bft) W-SW 250 0,00 min 2,47 klux 6,7 C 8,3 C
06.05.2004 19:55 8,4 C 9,5 C 88 % 996 hPa 0,4 l/m 2,7 m/s (1 Bft) W-SW22.5 255 0,00 min 2,22 klux 6,5 C 6,1 C
06.05.2004 20:00 8,4 C 9,4 C 88 % 996 hPa 0,0 l/m 2,5 m/s (1 Bft) W-SW22.5 250 0,00 min 2,14 klux 6,5 C 6,5 C
06.05.2004 20:05 8,4 C 9,4 C 89 % 996 hPa 0,0 l/m 2,3 m/s (1 Bft) W-SW22.5 250 0,00 min 1,92 klux 6,7 C 7,0 C
06.05.2004 20:10 8,3 C 9,3 C 89 % 996 hPa 0,0 l/m 1,7 m/s (1 Bft) W-SW22.5 250 0,00 min 1,61 klux 6,6 C 8,3 C
06.05.2004 20:15 8,3 C 9,3 C 89 % 996 hPa 0,4 l/m 2,0 m/s (1 Bft) W-SW22.5 245 0,00 min 1,21 klux 6,6 C 7,7 C
06.05.2004 20:20 8,1 C 9,2 C 89 % 996 hPa 0,0 l/m 2,4 m/s (1 Bft) W-SW22.5 250 0,00 min 962 lux 6,4 C 6,4 C
06.05.2004 20:25 8,1 C 9,2 C 90 % 996 hPa 0,0 l/m 3,7 m/s (1 Bft) W-SW45 250 0,00 min 825 lux 6,6 C 3,7 C
06.05.2004 20:30 8,2 C 9,1 C 90 % 996 hPa 0,0 l/m 2,6 m/s (1 Bft) W-SW22.5 255 0,00 min 570 lux 6,7 C 6,1 C
06.05.2004 20:35 8,1 C 9,0 C 90 % 996 hPa 0,0 l/m 2,5 m/s (1 Bft) W-SW22.5 255 0,00 min 383 lux 6,6 C 6,1 C
06.05.2004 20:40 8,0 C 9,0 C 90 % 996 hPa 0,0 l/m 2,5 m/s (1 Bft) W-SW22.5 255 0,00 min 283 lux 6,5 C 6,0 C
06.05.2004 20:45 8,0 C 9,0 C 90 % 996 hPa 0,0 l/m 3,8 m/s (1 Bft) W-SW22.5 250 0,00 min 188 lux 6,5 C 3,4 C
06.05.2004 20:50 8,0 C 8,9 C 90 % 996 hPa 0,0 l/m 3,7 m/s (1 Bft) W-SW22.5 245 0,00 min 129 lux 6,5 C 3,5 C
06.05.2004 20:55 8,0 C 8,8 C 90 % 996 hPa 0,0 l/m 3,5 m/s (1 Bft) W-SW22.5 245 0,00 min 107 lux 6,5 C 3,9 C
06.05.2004 21:00 8,0 C 8,8 C 90 % 996 hPa 0,0 l/m 3,6 m/s (1 Bft) W22.5 260 0,00 min 75 lux 6,5 C 3,8 C
06.05.2004 21:05 8,0 C 8,7 C 90 % 996 hPa 0,4 l/m 3,1 m/s (1 Bft) W-SW22.5 250 0,00 min 53 lux 6,5 C 4,7 C
06.05.2004 21:10 8,0 C 8,6 C 90 % 996 hPa 0,0 l/m 2,1 m/s (1 Bft) W-SW45 255 0,00 min 37 lux 6,5 C 7,1 C
06.05.2004 21:15 8,0 C 8,6 C 90 % 996 hPa 0,0 l/m 0,9 m/s (0 Bft) W-SW67.5 245 0,00 min 24 lux 6,5 C 8,0 C
06.05.2004 21:20 8,0 C 8,6 C 90 % 996 hPa 0,0 l/m 2,9 m/s (1 Bft) W-SW22.5 245 0,00 min 16 lux 6,5 C 5,0 C
06.05.2004 21:25 7,9 C 8,6 C 91 % 996 hPa 0,0 l/m 2,9 m/s (1 Bft) W-SW22.5 250 0,00 min 11 lux 6,5 C 4,9 C
06.05.2004 21:30 7,9 C 8,6 C 91 % 996 hPa 0,0 l/m 3,1 m/s (1 Bft) W-SW22.5 245 0,00 min 6 lux 6,5 C 4,6 C
06.05.2004 21:35 7,9 C 8,6 C 91 % 996 hPa 0,0 l/m 3,1 m/s (1 Bft) W-SW22.5 250 0,00 min 2 lux 6,5 C 4,7 C
06.05.2004 21:40 7,9 C 8,5 C 91 % 996 hPa 0,4 l/m 1,9 m/s (1 Bft) W-SW22.5 245 0,00 min 0 lux 6,5 C 7,6 C
06.05.2004 21:45 7,9 C 8,5 C 91 % 996 hPa 0,0 l/m 2,4 m/s (1 Bft) W-SW22.5 250 0,00 min 0 lux 6,5 C 6,3 C
06.05.2004 21:50 7,9 C 8,5 C 91 % 996 hPa 0,0 l/m 1,4 m/s (1 Bft) W-SW22.5 250 0,00 min 0 lux 6,5 C 7,9 C
06.05.2004 21:55 7,9 C 8,5 C 92 % 996 hPa 0,0 l/m 2,2 m/s (1 Bft) W-SW22.5 250 0,00 min 0 lux 6,7 C 6,6 C
06.05.2004 22:00 7,8 C 8,5 C 92 % 996 hPa 0,0 l/m 2,6 m/s (1 Bft) W-SW22.5 250 0,00 min 0 lux 6,6 C 5,6 C
06.05.2004 22:05 7,9 C 8,5 C 92 % 996 hPa 0,0 l/m 1,5 m/s (1 Bft) W-SW22.5 245 0,00 min 0 lux 6,7 C 7,9 C
06.05.2004 22:10 7,9 C 8,5 C 92 % 996 hPa 0,4 l/m 1,8 m/s (1 Bft) W-SW22.5 245 0,00 min 0 lux 6,7 C 7,9 C
06.05.2004 22:15 7,8 C 8,5 C 92 % 996 hPa 0,0 l/m 2,3 m/s (1 Bft) W-SW22.5 250 0,00 min 0 lux 6,6 C 6,4 C
06.05.2004 22:20 7,9 C 8,5 C 93 % 996 hPa 0,0 l/m 1,6 m/s (1 Bft) W-SW22.5 245 0,00 min 0 lux 6,8 C 7,9 C
06.05.2004 22:25 7,8 C 8,4 C 93 % 996 hPa 0,0 l/m 3,0 m/s (1 Bft) W-SW22.5 245 0,00 min 0 lux 6,7 C 4,6 C
06.05.2004 22:30 7,8 C 8,4 C 93 % 996 hPa 0,0 l/m 2,2 m/s (1 Bft) W-SW 245 0,00 min 0 lux 6,7 C 6,6 C
06.05.2004 22:35 7,8 C 8,4 C 93 % 996 hPa 0,4 l/m 2,1 m/s (1 Bft) W-SW22.5 255 0,00 min 0 lux 6,7 C 7,0 C
06.05.2004 22:40 7,8 C 8,4 C 93 % 996 hPa 0,0 l/m 2,2 m/s (1 Bft) W-SW22.5 250 0,00 min 0 lux 6,7 C 6,5 C
06.05.2004 22:45 7,8 C 8,4 C 93 % 996 hPa 0,0 l/m 1,7 m/s (1 Bft) W-SW22.5 250 0,00 min 0 lux 6,7 C 7,8 C
06.05.2004 22:50 7,8 C 8,4 C 94 % 996 hPa 0,0 l/m 1,6 m/s (1 Bft) W-SW22.5 250 0,00 min 0 lux 6,9 C 7,8 C
06.05.2004 22:55 7,8 C 8,4 C 94 % 996 hPa 0,0 l/m 1,8 m/s (1 Bft) W-SW22.5 240 0,00 min 0 lux 6,9 C 7,7 C
06.05.2004 23:00 7,8 C 8,3 C 94 % 996 hPa 0,0 l/m 1,3 m/s (1 Bft) W-SW22.5 245 0,00 min 0 lux 6,9 C 7,8 C
06.05.2004 23:05 7,8 C 8,3 C 94 % 996 hPa 0,0 l/m 1,8 m/s (1 Bft) W-SW22.5 240 0,00 min 0 lux 6,9 C 7,7 C
06.05.2004 23:10 7,8 C 8,3 C 94 % 996 hPa 0,0 l/m 1,6 m/s (1 Bft) W-SW 240 0,00 min 0 lux 6,9 C 7,8 C
06.05.2004 23:15 7,8 C 8,3 C 94 % 996 hPa 0,0 l/m 2,2 m/s (1 Bft) W-SW22.5 240 0,00 min 0 lux 6,9 C 6,5 C
06.05.2004 23:20 7,8 C 8,3 C 94 % 996 hPa 0,0 l/m 1,6 m/s (1 Bft) W-SW45 240 0,00 min 0 lux 6,9 C 7,8 C
06.05.2004 23:25 7,7 C 8,3 C 94 % 996 hPa 0,4 l/m 1,5 m/s (1 Bft) W-SW 250 0,00 min 0 lux 6,8 C 7,7 C
06.05.2004 23:30 7,7 C 8,3 C 94 % 996 hPa 0,0 l/m 1,6 m/s (1 Bft) W-SW22.5 250 0,00 min 0 lux 6,8 C 7,7 C
06.05.2004 23:35 7,7 C 8,3 C 94 % 996 hPa 0,0 l/m 1,9 m/s (1 Bft) W-SW22.5 250 0,00 min 0 lux 6,8 C 7,2 C
06.05.2004 23:40 7,7 C 8,3 C 94 % 996 hPa 0,0 l/m 2,8 m/s (1 Bft) W-SW22.5 240 0,00 min 0 lux 6,8 C 5,0 C
06.05.2004 23:45 7,7 C 8,3 C 94 % 996 hPa 0,0 l/m 1,2 m/s (1 Bft) W-SW 240 0,00 min 0 lux 6,8 C 7,7 C
06.05.2004 23:50 7,7 C 8,2 C 94 % 996 hPa 0,0 l/m 1,4 m/s (1 Bft) W-SW 250 0,00 min 0 lux 6,8 C 7,7 C
06.05.2004 23:55 7,6 C 8,2 C 94 % 996 hPa 0,4 l/m 2,1 m/s (1 Bft) SW22.5 235 0,00 min 0 lux 6,7 C 6,6 C
_ Min-Zeit 04:05 04:45 12:10 00:00 - 00:00 - - - - 12:45 04:05
Minimum _ 3,2 C 4,3 C 42 % 992 hPa - 0,0 m/s (0 Bft) - - - - 1,3 C 3,2 C
_ Max-Zeit 12:15 12:15 05:10 19:15 16:10 12:55 - - 00:00 12:10 22:50 12:05
Maximum _ 15,1 C 15,3 C 94 % 996 hPa 0,4 l/m 5,6 m/s
W-NW (4 Bft)
- - 0,00 min 52,8 klux 6,9 C 14,9 C
Durchschnitt _ 8,2 C 8,9 C 79 % 994 hPa #5,0 l/m 1,5 m/s (1 Bft) W-SW - #0 min. 11,6 klux 4,5 C 7,2 C